OBJECT H, 57173

Orbit data source: Space-Track

You're viewing an uncataloged RSO

Recently launched and/or uncataloged RSOs may have evolving metadata. Metadata may include the following, but is not limited to: Owner, Manufacturer, Bus, Motor, and Mission.

OBJECT H, 57173 is a satellite in SSO that was launched on Tue, 27 Jun 2023 UTC via a SOYUZ-2-1B launch vehicle from the Vostochny Cosmodrome (VOSTO). Unknown objects in Earth's orbit typically refer to objects detected orbiting the Earth but have not yet been identified or cataloged. These objects could be anything from previously untracked satellites, spent rocket stages, debris from satellite collisions, or even natural meteoroids temporarily captured by Earth's gravity.

Loading next visibility...
Identifier
57173, 2023-091H
Orbit
SSO
Country
Flag of TBDTBD
Related business
None
Manufacturer
Unknown
Mission
Operational Commercial Communications
Bus & Motor
Unknown
Mass
Unknown
Launch date (UTC)
2023-06-27 (3 years ago)
Launch vehicle
SOYUZ-2-1B
Launch site
Vostochny Cosmodrome (VOSTO)
Object type
Unknown
Shape & HBR
Box, 0.2 m
Radar Cross Section
0.035 m², Medium (>0.1 m² and < 1m²)

Expand to show TLE details & history
Last TLE update: 6 hours ago

TLE from 6 hours ago
0 OBJECT H
1 57173U 23091H   26257.15795029  .00008361  00000-0  28743-3 0  9993
2 57173  97.4956 321.1366 0010147 151.3816 208.7983 15.30303190177901
Epoch: 2026-09-14T03:47Z
TLE epoch observation values (Epoch: 2026-09-14T03:47:26.905Z)
Latitude
-0.00003°
Longitude
-88.86777°
Altitude
484.105 km
Speed
7.62 km/s
True Right ascension
21h 24m 32s
True Declination
0° 00' 00"
Sunlit
Object was in full shadow at epoch
Visualization orbit readout
Latitude
Unknown
Longitude
Unknown
Altitude
Unknown
Speed
Unknown
Apparent Right ascension
Unknown
Apparent Declination
Unknown
Sunlit
N/A
Visualization observer readout
Local Sidereal Time
02:35:39
Azimuth
Unknown
Elevation
Unknown
Doppler factor
Unknown
Orbital elements
Apogee altitude
478.814 km
Perigee altitude
464.912 km
Semi-major axis
6,850 km
Eccentricity
0.00101
Inclination
97.4956°
RAAN
321.1366°
Arg. of periapsis
151.3816°
True anomaly
208.74235°
Mean anomaly
208.7983°
Eccentric anomaly
208.77032°
Mean motion
3.82831 °/min
Orbital period
94.04 mins
BSTAR
0.00028743
Loading maneuver chart data...
Computing Atmospheric mass density...
Loading historical data...
Loading historical data...
Loading historical data...
Loading historical data...
Loading historical data...
Loading historical data...
Loading historical data...

Documentation

Showing up to 5 results
|